Meerawa, Australia

1:48 AM AEST on April 20, 2018 (GMT +1000)
Meerawa

Weather History for 94287 - July, 2013

Change the Weather History Date:

Thursday, July 25, 2013

  Actual Average Record
Temperature  
Mean Temperature 70 °F -  
Max Temperature 77 °F 80 °F - ()
Min Temperature 62 °F 64 °F - ()
Cooling Degree Days 4    
Growing Degree Days 20 (Base 50)    
Moisture  
Dew Point 51 °F    
Average Humidity 52    
Maximum Humidity 68    
Minimum Humidity 27    
Precipitation  
Precipitation 0.00 in 0.03 in - ()
Sea Level Pressure  
Sea Level Pressure 30.09 in    
Wind  
Wind Speed 13 mph ()    
Max Wind Speed 24 mph    
Max Gust Speed 33 mph    
Visibility 7.4 miles    
Events      
T = Trace of Precipitation, MM = Missing Value Source: Averaged Metar Reports

Daily Weather History Graph

Daily Weather History Graph

Search for Another Location

Airport or City:

Astronomy

Jul. 25, 2013 Rise Set
Actual Time 6:44 AM AEST 6:02 PM AEST
Civil Twilight 6:21 AM AEST 6:25 PM AEST
Nautical Twilight 5:55 AM AEST 6:51 PM AEST
Astronomical Twilight 5:29 AM AEST 7:17 PM AEST
Moon 8:38 PM AEST (7/25) 8:23 AM AEST (7/25)
Length of Visible Light 12h 03m
Length of Day
11h 17m
Waning Gibbous, 92% of the Moon is Illuminated
Jul 25
Waning Gibbous
Jul 30
Last Quarter
Aug 7
New
Aug 14
First Quarter
Aug 21
Full

Hourly Weather History & Observations

Time (AEST) Temp. Dew Point Humidity Pressure Visibility Wind Dir Wind Speed Gust Speed Precip Events Conditions
12:00 AM 66 °F 40 °F 27% 30.12 in - South 9.2 mph - -   Overcast
12:00 AM 66.2 °F 41.0 °F 40% 30.09 in - South 9.2 mph - N/A   Clear
12:30 AM 66.2 °F 41.0 °F 40% 30.09 in - South 8.1 mph - N/A   Clear
1:00 AM 66 °F 41 °F 28% 30.11 in - SSE 8.1 mph - -  
1:00 AM 66.2 °F 41.0 °F 40% 30.09 in - SSE 8.1 mph - N/A   Clear
1:30 AM 62.6 °F 44.6 °F 52% 30.09 in - SE 8.1 mph - N/A   Clear
2:00 AM 62.6 °F 46.4 °F 55% 30.09 in - SE 10.4 mph - N/A   Clear
2:30 AM 62.6 °F 46.4 °F 55% 30.06 in - SE 11.5 mph - N/A   Clear
3:00 AM 66 °F 47 °F 39% 30.07 in - SSE 9.2 mph - -   Overcast
3:00 AM 66.2 °F 46.4 °F 49% 30.06 in - SSE 9.2 mph - N/A   Clear
3:30 AM 66.2 °F 48.2 °F 52% 30.06 in - SSE 10.4 mph - N/A   Clear
4:00 AM 63 °F 49 °F 50% 30.07 in - SE 12.7 mph - -  
4:00 AM 62.6 °F 48.2 °F 59% 30.06 in - SE 12.7 mph - N/A   Clear
4:30 AM 62.6 °F 50.0 °F 63% 30.06 in 6.2 mi SSE 11.5 mph - N/A   Mostly Cloudy
5:00 AM 64.4 °F 48.2 °F 56% 30.06 in 6.2 mi SSE 15.0 mph - N/A   Scattered Clouds
5:30 AM 66.2 °F 50.0 °F 56% 30.06 in 6.2 mi SSE 17.3 mph - N/A   Partly Cloudy
6:00 AM 65 °F 50 °F 47% 30.09 in 19 mi SSE 17.3 mph - -   Partly Cloudy
6:00 AM 64.4 °F 50.0 °F 59% 30.06 in - SSE 17.3 mph - N/A   Unknown
6:30 AM 64.4 °F 48.2 °F 56% 30.09 in 6.2 mi SSE 18.4 mph - N/A   Partly Cloudy
7:00 AM 65 °F 49 °F 45% 30.11 in - SSE 18.4 mph - -  
7:00 AM 64.4 °F 48.2 °F 56% 30.09 in 6.2 mi SSE 18.4 mph - N/A   Partly Cloudy
7:30 AM 64.4 °F 48.2 °F 56% 30.09 in 6.2 mi South 17.3 mph - N/A   Partly Cloudy
8:00 AM 66.2 °F 48.2 °F 52% 30.09 in 6.2 mi SSE 19.6 mph - N/A   Partly Cloudy
8:32 AM 68.0 °F 48.2 °F 49% 30.12 in 6.2 mi SSE 18.4 mph 29.9 mph N/A   Partly Cloudy
9:00 AM 69 °F 50 °F 40% 30.13 in 19 mi South 17.3 mph - -   Partly Cloudy
9:04 AM 68.0 °F 50.0 °F 52% 30.12 in 6.2 mi South 17.3 mph 28.8 mph N/A   Partly Cloudy
9:30 AM 69.8 °F 51.8 °F 53% 30.12 in 6.2 mi South 20.7 mph 32.2 mph N/A   Partly Cloudy
10:00 AM 71 °F 51 °F 38% 30.14 in - SSE 21.9 mph - -  
10:00 AM 71.6 °F 51.8 °F 50% 30.12 in 6.2 mi SSE 21.9 mph - N/A   Partly Cloudy
10:30 AM 71.6 °F 51.8 °F 50% 30.12 in 6.2 mi South 20.7 mph - N/A   Partly Cloudy
11:00 AM 71.6 °F 50.0 °F 46% 30.12 in 6.2 mi SSE 20.7 mph - N/A   Partly Cloudy
11:30 AM 73.4 °F 51.8 °F 47% 30.09 in 6.2 mi SSE 19.6 mph - N/A   Partly Cloudy
12:00 PM 73 °F 52 °F 36% 30.11 in 19 mi SSE 18.4 mph - -   Partly Cloudy
12:00 PM 73.4 °F 51.8 °F 47% 30.09 in 6.2 mi SSE 18.4 mph - N/A   Partly Cloudy
12:23 PM 75.2 °F 51.8 °F 44% 30.09 in 6.2 mi SE 24.2 mph - N/A   Partly Cloudy
12:30 PM 73.4 °F 51.8 °F 47% 30.09 in 6.2 mi SE 23.0 mph - N/A   Partly Cloudy
12:39 PM 75.2 °F 51.8 °F 44% 30.09 in 6.2 mi SE 21.9 mph 33.4 mph N/A   Partly Cloudy
1:00 PM 74 °F 51 °F 34% 30.09 in - SE 21.9 mph - -  
1:00 PM 75.2 °F 51.8 °F 44% 30.06 in 6.2 mi SE 21.9 mph - N/A   Partly Cloudy
1:30 PM 75.2 °F 51.8 °F 44% 30.06 in 6.2 mi SE 19.6 mph - N/A   Partly Cloudy
2:00 PM 77.0 °F 53.6 °F 44% 30.06 in 6.2 mi SE 20.7 mph - N/A   Scattered Clouds
2:30 PM 73.4 °F 53.6 °F 50% 30.04 in 6.2 mi SE 18.4 mph - N/A   Scattered Clouds
3:00 PM 74 °F 53 °F 38% 30.06 in 19 mi SSE 15.0 mph - -   Partly Cloudy
3:00 PM 73.4 °F 53.6 °F 50% 30.04 in 6.2 mi SSE 15.0 mph - N/A   Scattered Clouds
3:30 PM 73.4 °F 53.6 °F 50% 30.04 in 6.2 mi SSE 13.8 mph - N/A   Scattered Clouds
4:00 PM 72 °F 54 °F 44% 30.06 in - SE 19.6 mph - -  
4:00 PM 71.6 °F 55.4 °F 57% 30.04 in 6.2 mi SE 19.6 mph - N/A   Scattered Clouds
4:30 PM 71.6 °F 55.4 °F 57% 30.06 in 6.2 mi South 16.1 mph - N/A   Scattered Clouds
5:00 PM 71.6 °F 55.4 °F 57% 30.06 in 6.2 mi SSE 17.3 mph - N/A   Scattered Clouds
5:30 PM 69.8 °F 55.4 °F 60% 30.06 in 6.2 mi South 18.4 mph - N/A   Scattered Clouds
6:00 PM 69 °F 55 °F 52% 30.08 in - SSE 18.4 mph - -  
6:00 PM 68.0 °F 55.4 °F 64% 30.06 in 6.2 mi SSE 18.4 mph - N/A   Scattered Clouds
6:30 PM 68.0 °F 55.4 °F 64% 30.09 in 6.2 mi South 18.4 mph - N/A   Scattered Clouds
7:00 PM 68 °F 55 °F 54% 30.11 in - South 13.8 mph - -  
7:00 PM 68.0 °F 55.4 °F 64% 30.09 in 6.2 mi South 13.8 mph - N/A   Scattered Clouds
7:30 PM 68.0 °F 55.4 °F 64% 30.09 in 6.2 mi South 13.8 mph - N/A   Mostly Cloudy
8:00 PM 68.0 °F 55.4 °F 64% 30.09 in 6.2 mi South 11.5 mph - N/A   Mostly Cloudy
8:30 PM 68.0 °F 55.4 °F 64% 30.09 in 6.2 mi South 16.1 mph - N/A   Scattered Clouds
9:00 PM 67 °F 55 °F 57% 30.12 in - South 15.0 mph - -  
9:00 PM 68.0 °F 55.4 °F 64% 30.09 in 6.2 mi South 15.0 mph - N/A   Mostly Cloudy
9:30 PM 68.0 °F 55.4 °F 64% 30.12 in 6.2 mi South 12.7 mph - N/A   Mostly Cloudy
10:00 PM 68 °F 56 °F 57% 30.14 in - South 12.7 mph - -  
10:00 PM 68.0 °F 57.2 °F 68% 30.12 in 6.2 mi South 12.7 mph - N/A   Mostly Cloudy
10:30 PM 68.0 °F 57.2 °F 68% 30.12 in 6.2 mi South 13.8 mph - N/A   Overcast
11:00 PM 69.8 °F 57.2 °F 64% 30.12 in 6.2 mi SSE 16.1 mph - N/A   Mostly Cloudy
11:30 PM 69.8 °F 59.0 °F 68% 30.09 in 6.2 mi South 17.3 mph - N/A   Mostly Cloudy